• en Suisse
  • Liste des pays
  • À 7 jours
  • Température de l'eau
  • Carte satellitaire
  • Carte météo
  • Widgets météo
  • user-avatar
    Se connecter

    Météo par heure à Ocotal

    Ce jour, 22 Mai, Mardi

    Heure Température Précipitation Vent Pression Humidité
    00:00 +23°C° 0,2 mm 0 m/s 707 mmHg 84%
    01:00 +22°C° 0,2 mm 0 m/s 706 mmHg 85%
    02:00 +22°C° 0,2 mm 0 m/s 706 mmHg 86%
    03:00 +22°C° 0,2 mm 0 m/s 706 mmHg 88%
    04:00 +22°C° 0 mm 0 m/s 706 mmHg 87%
    05:00 +22°C° 0 mm 0 m/s 706 mmHg 87%
    06:00 +22°C° 0 mm 0 m/s 706 mmHg 86%
    07:00 +24°C° 0 mm 0 m/s 707 mmHg 76%
    08:00 +27°C° 0 mm 0 m/s 707 mmHg 67%
    09:00 +29°C° 0 mm 0 m/s 708 mmHg 57%
    10:00 +33°C° 0 mm 1 m/s 708 mmHg 51%
    11:00 +34°C° 0 mm 1 m/s 707 mmHg 45%
    12:00 +36°C° 0 mm 1 m/s 707 mmHg 39%
    13:00 +35°C° 0,2 mm 1 m/s 706 mmHg 40%
    14:00 +35°C° 0,2 mm 1 m/s 706 mmHg 41%
    15:00 +34°C° 0,2 mm 1 m/s 705 mmHg 42%
    16:00 +32°C° 0,8 mm 1 m/s 705 mmHg 50%
    17:00 +30°C° 0,8 mm 1 m/s 705 mmHg 58%
    18:00 +28°C° 0,8 mm 1 m/s 705 mmHg 66%
    19:00 +28°C° 0,6 mm 1 m/s 706 mmHg 70%
    20:00 +27°C° 0,6 mm 1 m/s 707 mmHg 75%
    21:00 +26°C° 0,6 mm 1 m/s 707 mmHg 80%
    22:00 +26°C° 0,5 mm 1 m/s 707 mmHg 81%
    23:00 +23°C° 0,5 mm 0 m/s 707 mmHg 82%

    Demain, 23 Mai, Mercredi

    Heure Température Précipitation Vent Pression Humidité
    00:00 +23°C° 0,5 mm 0 m/s 707 mmHg 83%
    01:00 +23°C° 0,1 mm 0 m/s 707 mmHg 84%
    02:00 +22°C° 0,1 mm 0 m/s 706 mmHg 86%
    03:00 +22°C° 0,1 mm 0 m/s 706 mmHg 87%
    04:00 +22°C° 0 mm 0 m/s 706 mmHg 86%
    05:00 +22°C° 0 mm 0 m/s 706 mmHg 86%
    06:00 +22°C° 0 mm 0 m/s 707 mmHg 86%
    07:00 +24°C° 0 mm 0 m/s 707 mmHg 77%
    08:00 +26°C° 0 mm 0 m/s 708 mmHg 69%
    09:00 +29°C° 0 mm 0 m/s 708 mmHg 60%
    10:00 +32°C° 0,2 mm 1 m/s 708 mmHg 56%
    11:00 +33°C° 0,2 mm 1 m/s 708 mmHg 51%
    12:00 +34°C° 0,2 mm 1 m/s 708 mmHg 46%
    13:00 +33°C° 0,9 mm 1 m/s 707 mmHg 50%
    14:00 +32°C° 0,9 mm 1 m/s 706 mmHg 53%
    15:00 +31°C° 0,9 mm 2 m/s 706 mmHg 57%
    16:00 +30°C° 1,9 mm 1 m/s 706 mmHg 64%
    17:00 +28°C° 1,9 mm 1 m/s 706 mmHg 72%
    18:00 +27°C° 1,9 mm 1 m/s 706 mmHg 79%
    19:00 +26°C° 0,8 mm 1 m/s 707 mmHg 80%
    20:00 +26°C° 0,8 mm 1 m/s 707 mmHg 82%
    21:00 +24°C° 0,8 mm 0 m/s 708 mmHg 83%
    22:00 +23°C° 0,4 mm 0 m/s 708 mmHg 84%
    23:00 +23°C° 0,4 mm 0 m/s 708 mmHg 85%

    Après-demain, 24 Mai, Jeudi

    Heure Température Précipitation Vent Pression Humidité
    00:00 +23°C° 0,4 mm 0 m/s 708 mmHg 85%
    01:00 +23°C° 0,1 mm 0 m/s 707 mmHg 87%
    02:00 +22°C° 0,1 mm 0 m/s 707 mmHg 88%
    03:00 +22°C° 0,1 mm 0 m/s 706 mmHg 89%
    04:00 +22°C° 0 mm 0 m/s 707 mmHg 88%
    05:00 +22°C° 0 mm 0 m/s 707 mmHg 88%
    06:00 +22°C° 0 mm 0 m/s 707 mmHg 88%
    07:00 +25°C° 0 mm 0 m/s 708 mmHg 78%
    08:00 +27°C° 0 mm 0 m/s 709 mmHg 68%
    09:00 +30°C° 0 mm 0 m/s 709 mmHg 58%
    10:00 +31°C° 0,4 mm 0 m/s 709 mmHg 54%
    11:00 +34°C° 0,4 mm 1 m/s 708 mmHg 50%
    12:00 +35°C° 0,4 mm 1 m/s 708 mmHg 46%
    13:00 +34°C° 0,9 mm 1 m/s 707 mmHg 49%
    14:00 +33°C° 0,9 mm 1 m/s 707 mmHg 53%
    15:00 +32°C° 0,9 mm 1 m/s 706 mmHg 56%
    16:00 +30°C° 1,6 mm 1 m/s 706 mmHg 64%
    17:00 +29°C° 1,6 mm 1 m/s 706 mmHg 72%
    18:00 +27°C° 1,6 mm 1 m/s 706 mmHg 80%
    19:00 +27°C° 1,1 mm 1 m/s 707 mmHg 81%
    20:00 +26°C° 1,1 mm 1 m/s 707 mmHg 83%
    21:00 +26°C° 1,1 mm 1 m/s 708 mmHg 84%
    22:00 +23°C° 0,9 mm 0 m/s 708 mmHg 84%
    23:00 +23°C° 0,9 mm 0 m/s 708 mmHg 85%

    25 Mai, Vendredi

    Heure Température Précipitation Vent Pression Humidité
    00:00 +23°C° 0,9 mm 0 m/s 707 mmHg 86%
    01:00 +23°C° 0,2 mm 0 m/s 707 mmHg 86%
    02:00 +22°C° 0,2 mm 0 m/s 706 mmHg 87%
    03:00 +22°C° 0,2 mm 0 m/s 706 mmHg 88%
    04:00 +22°C° 0 mm 0 m/s 706 mmHg 87%
    05:00 +22°C° 0 mm 0 m/s 706 mmHg 87%
    06:00 +23°C° 0 mm 0 m/s 707 mmHg 86%
    07:00 +25°C° 0,1 mm 0 m/s 707 mmHg 77%
    08:00 +27°C° 0,1 mm 0 m/s 708 mmHg 67%
    09:00 +30°C° 0,1 mm 0 m/s 708 mmHg 58%
    10:00 +33°C° 0,3 mm 1 m/s 708 mmHg 54%
    11:00 +33°C° 0,3 mm 1 m/s 707 mmHg 51%
    12:00 +34°C° 0,3 mm 1 m/s 706 mmHg 47%
    13:00 +35°C° 0,5 mm 2 m/s 706 mmHg 50%
    14:00 +34°C° 0,5 mm 2 m/s 705 mmHg 53%
    15:00 +32°C° 0,5 mm 2 m/s 704 mmHg 56%
    16:00 +30°C° 0,6 mm 2 m/s 705 mmHg 63%
    17:00 +29°C° 0,6 mm 2 m/s 705 mmHg 70%
    18:00 +27°C° 0,6 mm 2 m/s 705 mmHg 77%
    19:00 +27°C° 0,5 mm 1 m/s 706 mmHg 80%
    20:00 +26°C° 0,5 mm 1 m/s 706 mmHg 83%
    21:00 +26°C° 0,5 mm 1 m/s 706 mmHg 85%
    22:00 +25°C° 0,4 mm 1 m/s 706 mmHg 86%
    23:00 +25°C° 0,4 mm 1 m/s 706 mmHg 87%

    26 Mai, Samedi

    Heure Température Précipitation Vent Pression Humidité
    00:00 +25°C° 0,4 mm 1 m/s 706 mmHg 88%
    01:00 +23°C° 0,2 mm 0 m/s 705 mmHg 88%
    02:00 +22°C° 0,2 mm 0 m/s 705 mmHg 89%
    03:00 +22°C° 0,2 mm 0 m/s 705 mmHg 90%
    04:00 +22°C° 0,1 mm 0 m/s 705 mmHg 89%
    05:00 +22°C° 0,1 mm 0 m/s 705 mmHg 88%
    06:00 +23°C° 0,1 mm 0 m/s 705 mmHg 88%
    07:00 +27°C° 0,1 mm 1 m/s 706 mmHg 79%
    08:00 +29°C° 0,1 mm 1 m/s 706 mmHg 70%
    09:00 +31°C° 0,1 mm 1 m/s 707 mmHg 61%
    10:00 +31°C° 0,5 mm 1 m/s 706 mmHg 59%
    11:00 +32°C° 0,5 mm 1 m/s 706 mmHg 58%
    12:00 +34°C° 0,5 mm 2 m/s 705 mmHg 56%
    13:00 +32°C° 1,9 mm 2 m/s 705 mmHg 61%
    14:00 +31°C° 1,9 mm 2 m/s 704 mmHg 66%
    15:00 +29°C° 1,9 mm 2 m/s 703 mmHg 70%
    16:00 +28°C° 1,6 mm 2 m/s 704 mmHg 76%
    17:00 +27°C° 1,6 mm 2 m/s 704 mmHg 81%
    18:00 +26°C° 1,6 mm 1 m/s 704 mmHg 87%
    19:00 +26°C° 0,7 mm 1 m/s 705 mmHg 88%
    20:00 +25°C° 0,7 mm 1 m/s 705 mmHg 89%
    21:00 +25°C° 0,7 mm 1 m/s 706 mmHg 90%
    22:00 +25°C° 0,2 mm 1 m/s 706 mmHg 90%
    23:00 +25°C° 0,2 mm 1 m/s 706 mmHg 91%

    27 Mai, Dimanche

    Heure Température Précipitation Vent Pression Humidité
    00:00 +25°C° 0,2 mm 1 m/s 705 mmHg 91%
    01:00 +24°C° 0,1 mm 1 m/s 705 mmHg 91%
    02:00 +24°C° 0,1 mm 1 m/s 705 mmHg 92%
    03:00 +24°C° 0,1 mm 1 m/s 704 mmHg 92%
    04:00 +24°C° 0 mm 1 m/s 705 mmHg 92%
    05:00 +24°C° 0 mm 1 m/s 705 mmHg 91%
    06:00 +24°C° 0 mm 1 m/s 705 mmHg 91%
    07:00 +25°C° 0 mm 1 m/s 706 mmHg 85%
    08:00 +27°C° 0 mm 1 m/s 706 mmHg 79%
    09:00 +28°C° 0 mm 1 m/s 706 mmHg 73%
    10:00 +29°C° 0 mm 2 m/s 706 mmHg 68%
    11:00 +30°C° 0 mm 2 m/s 706 mmHg 64%
    12:00 +31°C° 0 mm 2 m/s 705 mmHg 59%
    13:00 +31°C° 0,2 mm 2 m/s 705 mmHg 60%
    14:00 +31°C° 0,2 mm 2 m/s 705 mmHg 61%
    15:00 +30°C° 0,2 mm 2 m/s 704 mmHg 62%
    16:00 +29°C° 0,3 mm 2 m/s 704 mmHg 67%
    17:00 +28°C° 0,3 mm 2 m/s 705 mmHg 73%
    18:00 +27°C° 0,3 mm 1 m/s 705 mmHg 78%
    19:00 +26°C° 0,2 mm 1 m/s 705 mmHg 81%
    20:00 +26°C° 0,2 mm 1 m/s 706 mmHg 84%
    21:00 +25°C° 0,2 mm 1 m/s 706 mmHg 87%
    22:00 +25°C° 0,1 mm 1 m/s 706 mmHg 88%
    23:00 +25°C° 0,1 mm 1 m/s 706 mmHg 89%
    Voir plus